RH
47 51 54 57 59 59 57 57 57 57 58 60 63 64 63 60 56 53 54 54 51 45 37 31 28 27 26 25 27 29 29 32 34 36 36 35 36 37 39 39 37 37 38 39 42 41 41 47 52 59 71 82 95 103 92 83 93 102 100 101 103 101 98 98 100 101 100 99 100 103 104 97 83 70
55 59 62 62 61 59 58 58 59 59 61 63 64 62 58 54 50 50 51 49 44 39 33 29 28 29 31 31 31 32 32 32 33 35 38 38 37 35 35 38 38 37 37 36 39 42 41 42 45 49 59 70 82 98 102 86 83 97 101 99 103 101 99 100 101 101 100 99 99 100 103 106 96 78
64 65 65 63 60 60 60 60 62 62 64 65 62 58 53 49 47 46 44 39 32 30 30 31 32 35 39 41 41 41 39 37 35 33 34 36 38 38 35 34 35 36 37 37 36 39 42 41 42 43 48 59 69 85 102 94 82 93 102 99 101 101 99 101 101 100 100 100 101 100 100 104 105 93
69 68 64 62 62 62 64 64 65 65 65 64 59 55 50 47 45 41 35 31 27 28 32 38 43 45 45 44 43 43 43 41 39 36 34 33 33 36 38 35 34 33 34 37 37 36 39 40 41 42 42 49 58 69 90 98 88 92 102 100 100 102 100 100 101 100 101 100 101 101 100 100 103 105
71 67 63 64 65 66 67 67 67 67 65 62 58 53 48 44 40 34 27 26 30 36 41 43 43 40 38 37 35 35 36 36 35 35 35 35 33 32 34 35 35 34 32 34 37 36 37 38 39 41 40 42 49 56 72 89 89 91 102 102 99 100 102 101 100 99 100 101 100 101 102 99 98 105
69 65 65 67 68 68 68 68 69 68 65 63 59 53 47 41 34 27 26 31 38 43 42 38 35 31 29 28 28 27 28 29 29 29 28 30 33 32 31 32 32 33 33 32 33 35 36 36 36 39 40 39 43 48 57 74 84 88 97 103 102 100 102 102 100 99 100 101 100 99 101 101 97 97
66 66 68 69 69 69 71 72 71 69 67 65 59 52 45 37 28 26 31 37 39 37 34 31 28 26 23 21 21 20 21 23 23 24 24 22 24 27 29 31 29 29 31 31 31 31 33 35 35 35 38 39 40 43 48 60 74 81 85 93 100 101 102 102 101 101 99 99 101 100 100 101 97 90
67 69 71 72 73 73 75 76 74 72 71 65 56 49 41 30 27 32 38 37 33 30 27 25 21 19 18 16 16 15 15 17 17 17 20 20 19 20 21 25 27 26 26 27 29 29 29 32 34 34 35 37 38 40 42 50 62 72 74 77 87 98 104 103 102 101 99 98 100 101 100 102 100 90
73 74 76 75 76 78 79 78 76 75 70 60 51 44 33 27 32 39 38 33 29 25 21 20 18 16 16 15 14 14 13 14 14 14 14 15 16 17 16 17 20 22 22 22 24 27 27 28 30 33 33 34 36 38 39 43 52 62 66 66 71 87 102 104 101 101 100 99 100 101 100 100 102 98
78 78 79 79 81 83 82 80 78 73 63 53 47 37 29 34 41 40 35 30 25 21 18 18 19 18 17 16 14 14 14 13 14 14 14 13 12 12 13 14 14 16 17 17 18 22 26 26 27 30 31 33 34 35 37 39 45 53 60 61 60 69 89 102 102 100 100 101 100 100 101 100 100 101
82 83 83 83 85 85 82 80 76 66 57 50 41 33 35 44 44 37 32 28 22 20 20 20 21 20 18 17 16 15 15 14 14 14 16 16 14 11 11 11 11 11 12 14 15 18 21 25 27 28 29 30 32 33 34 35 39 47 53 58 59 60 74 95 103 100 100 101 101 99 99 101 99 97
87 87 84 84 84 83 81 77 69 62 57 48 37 38 47 48 41 34 29 24 22 22 23 22 22 22 20 18 17 17 16 16 15 14 15 17 16 14 12 10 10 10 10 11 13 15 17 20 25 27 28 28 29 31 33 33 34 40 47 54 59 58 66 88 103 103 100 101 103 101 99 99 95 89
89 85 83 83 82 81 79 73 66 61 53 42 40 48 52 45 37 31 24 22 24 24 23 24 23 22 20 18 18 17 16 15 15 14 14 14 15 14 14 12 10 9 10 11 10 11 13 15 18 24 27 29 28 28 30 32 32 34 41 50 57 58 60 78 99 104 101 101 102 101 101 101 94 84
87 83 82 83 81 80 77 70 65 58 45 40 47 52 47 38 31 25 22 23 24 23 23 24 23 23 21 19 17 17 16 15 14 13 13 13 13 13 13 13 10 8 10 11 10 8 9 11 13 16 22 27 29 28 27 30 32 32 34 42 54 61 59 67 90 104 102 101 102 100 99 102 99 91
86 85 84 83 81 79 75 69 61 51 42 45 52 49 39 31 24 21 22 23 23 24 25 24 23 23 21 19 18 17 16 15 14 14 14 13 13 12 12 12 11 9 8 9 10 7 6 8 10 11 15 21 26 29 28 27 29 31 32 34 45 61 66 63 77 100 106 100 101 102 99 100 101 99
90 89 84 83 84 80 73 66 56 47 46 52 51 42 33 25 21 20 21 22 23 24 25 24 23 22 21 20 19 18 17 16 15 14 13 13 13 12 11 11 11 10 8 7 9 8 6 6 8 9 10 13 19 26 28 27 26 28 31 31 34 51 70 72 70 88 106 105 100 101 101 100 101 100
94 89 86 89 88 77 66 60 54 51 54 53 45 35 27 22 22 22 21 21 22 23 23 23 21 20 20 20 20 19 18 16 15 14 12 11 10 10 10 10 9 9 8 7 7 7 6 5 7 8 8 9 12 18 24 27 26 25 28 31 30 36 58 79 79 79 95 108 104 100 101 101 101 101
95 91 94 93 83 70 63 60 59 58 55 48 38 30 25 24 25 24 24 23 23 22 23 22 21 19 20 21 21 21 19 17 16 14 12 9 8 8 7 7 8 7 7 7 6 6 6 5 6 7 7 8 9 11 17 24 26 26 25 27 30 30 39 67 87 85 87 101 107 101 100 102 101 100
97 99 99 89 75 67 66 66 63 58 50 41 33 28 26 28 27 25 25 24 24 23 22 21 20 19 20 23 24 22 21 19 16 13 11 9 8 8 7 6 6 6 6 6 6 5 4 5 5 6 6 7 8 8 11 17 23 26 25 24 27 30 29 43 74 93 91 94 103 102 99 101 102 101
104 102 92 79 70 66 67 67 61 52 44 36 31 29 30 30 28 27 26 24 24 23 21 21 22 21 21 23 24 23 21 18 15 12 10 8 7 7 7 6 5 6 5 5 5 5 4 4 4 5 5 6 7 8 7 11 17 22 26 25 23 28 30 30 48 80 97 96 99 103 101 100 101 102
104 93 79 70 66 66 66 63 55 47 40 34 31 31 33 32 31 30 28 26 25 24 24 25 26 23 22 22 22 22 19 15 13 11 9 8 7 6 6 6 5 5 5 4 4 4 4 4 4 4 5 5 5 7 7 7 11 16 22 26 24 23 29 30 31 54 86 101 100 101 103 101 99 102
95 80 71 67 67 68 66 59 51 43 37 33 33 34 34 34 34 33 32 31 30 30 30 31 30 26 23 21 21 20 17 14 12 11 9 8 7 6 6 6 6 5 4 4 4 4 4 4 4 3 4 5 4 5 6 6 8 12 17 23 27 24 25 30 29 34 61 92 102 101 102 102 100 101
85 74 69 68 70 69 63 55 47 40 35 34 35 36 36 36 36 36 36 34 33 34 36 35 32 29 24 21 20 18 15 12 11 9 9 8 8 7 6 6 7 7 5 4 4 4 4 3 4 4 3 4 4 4 6 6 6 9 13 18 25 26 24 27 30 29 39 69 96 104 103 103 102 99
78 72 69 69 70 67 60 52 44 38 36 36 37 37 38 39 39 39 37 34 34 36 37 34 31 28 25 22 20 17 14 12 10 9 8 8 8 7 6 6 6 6 7 6 4 4 4 3 3 4 3 3 4 4 5 6 6 7 10 15 21 26 25 25 28 30 30 45 76 100 104 102 103 101
76 71 68 69 69 64 56 48 42 38 36 37 38 39 40 40 41 40 37 35 35 36 35 33 30 29 28 25 21 17 14 12 10 8 8 9 9 9 8 7 7 6 6 6 5 4 4 4 3 4 4 3 4 5 4 5 6 7 7 12 18 23 26 25 25 29 30 33 53 85 103 103 102 103
74 71 70 71 69 61 53 47 42 39 38 39 40 41 42 43 42 41 38 37 37 36 34 32 30 30 31 29 24 19 16 13 11 9 9 10 11 11 10 8 7 7 6 5 6 5 4 4 4 3 4 3 3 5 5 4 5 7 6 8 14 20 24 26 26 28 32 32 38 63 93 106 104 101
71 69 71 72 66 58 53 48 42 39 40 42 43 43 45 45 43 42 40 39 38 37 35 31 30 31 32 31 28 23 18 15 13 10 10 11 12 12 12 10 8 7 7 6 6 6 4 4 4 3 3 4 3 4 5 4 4 6 7 7 10 17 22 27 29 28 31 34 35 44 69 96 105 101
68 70 72 70 62 56 53 47 41 41 43 44 45 46 46 47 46 44 43 42 41 40 36 33 31 31 31 31 29 25 20 16 12 10 9 9 9 10 10 10 9 7 7 7 6 6 5 4 4 4 3 4 4 4 4 5 4 5 6 6 8 14 20 25 30 31 30 33 36 37 47 72 96 105
70 72 70 65 60 56 53 45 41 44 46 46 47 47 47 48 48 46 45 44 43 41 38 35 32 31 31 32 30 24 19 16 12 11 10 10 9 9 8 9 9 8 7 7 6 5 6 4 4 5 4 3 4 5 4 4 5 4 6 7 7 11 18 23 28 32 32 31 35 39 40 50 75 99
73 71 67 63 60 56 51 44 43 46 48 48 48 49 50 50 49 48 47 47 46 42 39 36 34 32 31 33 31 26 21 18 14 12 13 14 13 12 11 10 10 9 8 8 7 5 5 5 4 4 4 4 4 4 4 4 5 5 5 7 8 9 15 22 28 31 34 33 32 37 41 41 52 79
73 69 66 64 61 56 49 44 46 48 49 50 50 50 51 50 49 48 48 48 46 42 38 36 35 34 33 33 33 30 25 22 18 13 13 16 16 15 14 12 11 10 9 8 8 7 6 6 5 4 4 5 4 4 5 4 4 6 6 6 9 10 13 20 28 32 35 36 34 34 40 43 43 59
70 69 70 68 62 54 47 46 49 51 51 51 51 52 52 50 49 48 48 48 45 40 37 37 38 39 39 37 35 32 28 25 21 17 15 17 17 16 16 15 13 12 11 9 8 8 7 6 6 5 5 5 5 4 5 5 5 6 7 7 9 11 13 19 28 35 36 37 37 35 38 43 43 47
70 75 76 70 60 51 46 48 51 51 51 52 52 52 51 49 49 50 51 51 46 40 38 39 41 44 45 43 39 36 31 27 24 20 18 19 19 17 16 16 15 14 13 12 10 10 9 8 7 7 5 5 6 5 5 6 7 7 8 9 9 11 14 19 27 36 39 38 39 39 38 42 46 45
77 83 78 68 57 49 47 50 52 51 51 52 53 52 50 49 50 53 55 52 46 41 39 40 43 46 47 47 45 42 37 32 27 21 19 20 22 21 18 18 17 15 14 14 12 11 11 9 9 8 7 6 7 7 7 7 8 9 9 10 10 10 14 20 27 35 40 40 41 44 42 42 48 50
86 85 75 63 53 48 49 52 52 51 52 53 53 51 50 50 52 56 57 52 44 41 42 43 45 47 48 49 49 47 42 36 31 25 20 20 23 24 22 20 20 18 17 16 15 14 13 12 11 9 9 9 8 8 8 9 9 10 11 11 12 12 14 20 27 35 40 42 44 46 47 46 48 53
92 82 69 58 50 48 51 52 52 53 54 55 54 52 50 51 55 58 56 49 44 43 46 47 49 50 51 51 51 50 47 41 36 31 25 21 23 25 24 21 22 21 20 19 19 18 15 14 14 12 11 12 12 10 10 11 11 12 12 12 13 14 16 20 28 35 41 45 46 47 48 48 48 51
91 77 62 52 49 50 53 52 52 55 56 54 53 52 52 55 60 59 53 46 43 45 48 51 52 53 54 54 53 53 51 46 42 37 30 24 24 27 27 25 24 24 23 21 22 22 19 16 17 16 14 14 16 14 12 13 14 14 14 14 15 16 19 22 29 36 43 47 50 51 51 53 54 54
84 70 56 49 50 53 52 51 54 56 55 53 53 53 55 59 61 57 49 43 43 46 50 54 57 57 58 59 58 57 56 52 47 43 38 31 27 27 30 30 27 26 26 25 24 26 24 20 18 19 17 16 18 18 16 15 16 17 16 16 16 18 21 24 30 38 44 49 52 54 56 57 59 60
75 61 50 48 53 54 51 51 54 54 53 53 54 56 60 61 56 50 45 43 44 49 54 59 62 61 61 61 60 59 58 57 54 50 47 41 33 28 30 33 31 28 27 27 26 28 28 25 21 21 21 19 18 20 21 19 18 18 18 18 18 19 21 26 31 39 46 50 53 56 58 59 58 58
66 53 48 51 55 54 52 52 54 54 54 55 58 61 62 58 51 46 44 46 50 55 59 62 64 65 64 63 63 61 59 58 57 54 51 47 40 33 31 33 34 33 30 28 28 29 31 31 27 23 23 23 20 20 22 23 23 21 20 20 21 21 23 27 32 39 46 52 55 58 60 61 60 59
57 48 50 55 55 54 53 53 54 55 57 58 60 59 56 52 47 45 47 52 58 63 67 67 66 66 66 65 65 64 62 60 59 57 55 52 47 40 34 32 34 36 34 31 30 30 31 34 34 29 25 25 24 23 22 23 25 25 24 23 23 24 25 28 33 40 47 52 57 61 63 64 64 63
51 48 53 56 55 55 55 54 55 57 58 57 56 53 49 47 47 50 56 61 66 70 72 71 69 68 68 67 65 64 64 63 62 61 59 57 53 47 41 36 33 36 38 36 34 32 31 33 36 36 31 28 27 26 25 24 24 26 27 27 27 27 28 30 34 40 46 52 58 62 65 67 67 66
49 51 54 55 55 56 56 54 53 54 53 52 50 48 47 48 52 61 68 71 71 71 71 70 71 72 73 71 68 65 63 63 63 62 61 59 58 56 52 45 38 36 38 39 38 36 34 32 34 36 37 34 31 29 28 27 26 25 26 27 28 29 31 33 36 40 45 52 57 61 64 67 69 69
50 54 55 54 56 56 54 51 49 48 48 48 47 47 50 54 61 71 76 76 72 69 66 67 71 74 76 75 71 66 62 61 61 63 63 62 60 59 57 53 46 39 37 38 40 39 38 36 34 34 37 38 36 33 31 30 29 27 26 25 27 29 31 34 37 40 45 50 57 62 65 67 69 71
53 54 53 53 54 53 50 47 46 46 47 48 48 50 56 63 69 74 77 76 74 69 67 68 72 75 78 77 73 69 65 61 59 61 63 63 62 60 58 56 53 46 40 37 38 40 40 39 37 35 35 37 38 38 36 34 32 31 29 28 28 29 31 35 38 41 44 48 54 59 64 68 70 73
Wind_Speed
71 71 71 71 71 71 72 72 72 73 73 73 73 73 74 74 75 75 73 70 69 67 65 63 64 63 60 58 58 58 57 56 56 56 57 58 60 62 64 66 68 68 68 69 69 69 71 74 76 76 74 73 71 71 71 71 67 63 59 55 53 52 51 50 51 51 50 49 47 44 41 39 37 35
71 71 71 71 72 72 72 73 73 74 73 74 74 74 75 75 74 72 70 69 67 67 67 65 64 64 64 61 60 60 59 58 57 57 57 58 60 62 64 66 68 70 71 71 72 72 72 73 76 78 78 76 74 73 74 74 72 69 65 61 56 54 52 51 52 53 52 51 49 47 45 42 40 38
71 71 71 72 72 73 73 74 74 74 74 75 75 76 76 75 73 71 70 70 69 67 67 67 65 64 64 62 61 61 61 60 59 58 58 58 59 60 63 66 68 70 72 73 74 75 75 74 76 79 80 80 77 75 75 77 76 73 70 66 62 57 54 53 53 53 53 52 51 50 48 45 43 41
71 71 72 72 73 74 75 75 75 75 76 76 77 77 77 75 73 71 69 70 70 69 66 66 65 64 64 63 62 61 62 62 60 60 60 60 60 60 61 64 67 70 73 75 76 77 78 77 77 78 81 82 81 79 78 79 79 78 74 71 67 63 59 56 54 54 54 54 53 53 51 49 47 45
72 72 72 73 75 75 75 76 76 77 77 78 79 79 78 75 72 71 70 70 70 70 68 66 65 63 62 62 62 61 63 64 63 62 61 61 62 62 62 63 66 69 72 75 77 79 80 80 79 79 80 83 84 83 82 81 82 81 79 75 72 68 64 60 57 55 55 55 56 55 54 52 51 49
72 72 74 75 75 76 76 77 77 78 79 80 81 80 78 76 74 72 71 69 68 69 69 67 65 63 61 60 60 60 61 63 64 65 64 63 63 64 64 64 65 67 70 74 78 79 81 82 82 81 81 82 85 87 86 85 84 84 83 80 77 73 69 64 59 57 57 57 57 57 56 55 54 52
72 74 75 75 76 76 77 77 78 80 81 82 82 80 78 77 76 74 72 70 68 67 67 66 63 61 60 58 57 56 57 59 61 63 65 65 65 65 66 67 67 67 68 72 76 79 81 82 84 84 83 83 85 88 89 88 87 87 87 86 83 79 74 68 62 60 60 59 58 58 58 57 56 55
73 74 75 75 76 76 77 78 80 81 83 83 82 80 78 77 77 75 73 71 69 66 65 64 63 60 58 57 55 54 54 55 57 59 62 65 66 66 66 67 69 70 69 69 72 77 80 82 83 85 86 85 85 87 90 91 90 88 89 89 88 85 80 73 67 64 63 62 60 58 59 59 59 57
74 75 75 75 76 77 78 79 81 82 83 82 80 79 79 78 77 76 75 72 69 66 63 62 61 59 56 55 54 52 51 53 54 56 58 62 64 65 66 66 68 70 70 69 68 71 76 80 82 84 87 88 87 87 89 92 93 91 90 90 89 87 83 79 74 69 66 64 62 60 60 61 60 58
74 74 74 75 76 78 79 81 82 83 82 80 80 80 80 80 79 77 75 72 70 67 64 61 60 59 57 55 54 52 51 51 51 53 56 59 61 62 64 66 66 67 68 68 66 65 70 75 80 83 86 88 90 89 89 91 94 95 93 92 91 89 86 84 81 75 70 67 66 64 62 62 62 60
73 74 74 76 77 78 80 82 83 82 81 80 80 81 80 80 79 77 74 72 69 66 63 61 60 59 58 55 54 53 52 51 50 50 52 58 60 60 60 63 64 64 62 62 63 63 65 70 76 81 85 87 90 92 91 91 94 96 97 96 94 93 90 87 86 83 77 72 68 67 66 64 63 62
73 74 75 76 77 79 81 82 82 81 80 81 81 81 81 80 79 76 73 70 67 65 62 61 60 59 58 56 54 53 52 51 51 49 49 53 57 59 60 60 60 60 58 56 58 62 64 66 70 76 82 86 89 92 93 93 93 96 99 99 98 96 94 92 90 88 84 79 73 71 69 68 66 65
73 74 75 76 78 80 81 81 80 80 80 80 80 80 80 80 77 74 71 67 64 62 61 59 58 58 58 56 53 52 52 50 50 50 49 50 53 55 59 61 59 55 53 53 55 58 61 64 67 71 78 84 87 90 93 95 95 96 99 101 101 99 97 96 94 92 89 85 80 76 73 71 69 67
73 74 75 77 79 80 81 80 80 80 80 80 80 80 79 78 74 70 67 64 61 60 58 57 56 55 56 55 52 51 51 50 49 49 48 49 50 51 53 58 60 54 49 50 54 55 56 59 65 69 73 81 86 88 91 95 97 97 98 101 103 102 100 98 97 95 93 90 86 81 77 74 71 68
74 75 76 78 80 80 80 80 80 80 80 80 80 80 78 75 71 66 63 61 59 57 56 55 53 53 54 54 52 50 49 49 48 47 47 48 49 50 49 52 56 54 47 46 51 54 54 55 61 67 70 76 82 87 89 92 96 98 99 100 103 105 103 101 100 98 96 93 90 86 82 78 75 71
74 76 77 79 80 80 80 79 80 80 80 80 80 80 77 73 69 65 61 59 56 54 52 52 51 50 50 51 50 50 49 48 47 46 46 47 47 48 48 47 51 52 47 44 47 53 55 54 57 63 67 70 76 83 87 90 93 97 100 100 102 105 106 104 102 101 99 97 94 91 87 83 80 77
74 76 78 79 80 79 78 79 80 80 81 81 80 78 75 72 69 66 63 59 55 52 50 49 49 48 47 47 48 48 48 47 47 46 46 46 45 45 45 44 45 47 46 43 45 50 55 54 53 57 61 64 70 77 84 88 90 94 98 100 101 104 107 107 105 104 102 100 97 94 91 87 83 81
75 77 78 79 78 77 77 78 79 80 80 79 78 75 73 70 68 66 63 59 56 53 50 49 48 46 45 45 46 48 48 48 48 47 46 46 45 44 43 41 40 40 41 42 44 48 52 53 51 52 54 59 65 72 78 85 89 91 95 99 101 102 106 109 108 106 104 103 100 96 94 90 86 83
75 76 77 76 76 76 76 77 78 78 77 76 75 73 71 69 67 64 61 57 54 52 49 48 47 46 44 45 46 47 48 48 47 47 46 45 43 43 43 41 37 36 37 39 42 46 49 48 47 47 50 55 61 68 73 81 87 90 91 95 99 101 104 108 111 109 106 105 102 99 96 93 89 86
75 75 75 74 74 74 75 76 76 75 74 74 72 70 69 68 67 64 60 57 53 51 50 48 49 48 46 45 45 46 45 45 45 45 44 43 41 40 41 41 37 34 35 36 38 43 45 44 43 43 46 51 58 64 68 74 82 88 90 92 96 99 102 106 110 111 109 106 104 101 98 94 92 89
73 73 73 73 73 73 74 75 74 73 72 71 69 69 68 66 65 63 60 58 55 53 52 51 51 51 48 45 45 45 44 43 42 42 41 40 39 37 38 39 37 34 33 34 35 39 41 41 40 41 42 47 54 59 62 67 75 83 88 91 93 96 99 103 107 111 112 109 106 104 100 96 93 91
72 71 71 71 71 72 72 72 71 70 70 68 67 67 66 64 62 60 59 58 56 54 53 53 54 53 51 47 44 43 42 40 39 38 38 38 37 36 35 36 38 36 32 32 33 34 36 37 38 39 39 42 48 53 57 62 68 76 84 89 91 93 97 100 103 108 111 111 108 106 103 99 96 93
70 70 70 70 70 70 70 69 69 68 67 66 66 65 63 61 59 57 56 55 53 51 51 52 52 52 51 47 43 41 40 38 36 34 34 34 35 34 32 31 33 35 34 32 31 30 31 32 34 36 37 37 41 48 53 58 63 70 78 85 90 92 94 98 101 104 108 111 111 108 105 103 99 95
69 69 69 69 68 68 67 67 67 67 65 64 64 63 60 58 56 55 54 52 50 49 48 48 48 49 49 48 44 41 39 37 36 34 32 32 32 33 31 27 26 29 31 32 31 29 28 28 29 32 35 33 34 42 50 54 59 65 73 81 88 91 92 95 99 101 104 108 111 110 107 105 102 98
67 68 68 67 66 66 66 66 66 65 64 63 63 61 58 56 54 53 52 51 49 48 47 46 46 47 47 48 46 43 40 38 37 35 33 32 32 32 32 29 27 26 27 28 29 29 27 26 26 28 32 30 29 37 47 52 56 62 69 77 85 90 91 92 95 97 99 103 108 110 109 106 104 100
66 67 65 64 64 64 64 65 65 64 64 63 61 59 56 54 52 51 51 50 49 48 46 45 44 45 46 46 46 44 42 40 38 36 34 32 32 32 32 30 28 26 26 25 25 27 26 24 23 25 28 27 27 33 43 49 53 59 66 72 80 87 89 89 91 94 96 99 104 108 110 108 105 102
66 65 63 62 63 63 64 65 64 63 63 62 60 57 54 52 51 50 50 50 49 48 47 45 43 43 43 44 45 44 42 39 37 35 33 30 29 28 29 30 27 25 25 25 23 24 24 23 22 22 23 24 25 30 39 46 50 56 62 68 75 83 87 88 90 93 95 97 101 106 109 110 107 103
64 62 62 62 62 63 64 64 63 63 62 60 57 55 52 51 50 49 49 49 48 48 47 45 43 42 41 41 42 42 40 37 35 33 31 30 27 24 23 25 25 23 23 23 22 21 20 20 19 19 20 21 23 28 36 43 47 52 59 65 71 78 84 88 90 93 95 96 99 102 106 108 108 105
62 61 61 61 62 63 64 63 62 62 60 58 55 52 50 49 48 47 47 47 47 47 47 46 43 41 40 40 41 40 39 37 36 34 33 32 31 27 24 24 24 23 22 21 19 18 16 16 16 16 17 19 22 27 33 39 44 49 55 61 67 74 81 85 88 91 93 95 96 98 101 104 107 106
61 61 61 61 62 64 64 63 62 60 58 55 52 50 48 47 46 45 45 45 46 46 45 44 43 41 40 39 40 40 40 38 37 35 33 32 32 30 28 26 24 24 23 21 18 15 14 12 13 13 14 17 21 25 30 34 40 46 52 57 63 70 77 82 86 89 91 92 93 95 98 101 104 105
61 61 61 62 63 64 63 62 61 59 56 53 50 48 46 45 44 43 42 42 43 44 43 43 43 42 41 40 40 39 39 38 37 35 32 31 31 30 29 27 24 23 22 19 17 15 13 11 10 11 12 15 19 23 26 30 35 42 47 54 60 67 73 79 83 86 89 91 91 92 94 97 99 102
61 61 62 63 64 64 63 61 59 56 52 50 48 46 44 43 42 42 41 41 42 43 43 43 43 43 43 42 40 38 38 37 36 35 33 31 29 28 27 26 26 24 22 19 16 15 12 10 9 9 10 13 16 20 23 27 32 38 44 51 58 64 70 75 80 84 87 89 89 89 91 93 95 97
60 61 63 64 64 63 62 60 57 53 49 46 45 44 43 42 41 40 41 41 42 42 42 42 42 42 42 42 41 39 38 36 34 33 32 31 30 27 25 24 24 23 21 19 16 15 12 10 8 8 8 10 13 17 21 26 32 38 44 50 57 63 68 73 78 83 86 87 88 88 88 89 91 93
61 63 64 64 64 62 60 58 54 50 47 44 42 42 41 40 40 40 40 41 41 41 41 40 40 39 39 40 40 39 38 37 34 32 29 28 28 27 26 25 23 22 20 18 16 14 12 9 7 6 6 8 12 17 22 27 32 38 44 50 56 61 66 71 77 81 84 86 86 87 87 87 89 90
62 63 64 64 63 61 58 55 51 47 45 43 41 40 39 38 38 38 39 40 40 40 40 39 39 38 37 37 38 38 37 36 34 33 30 28 27 26 25 23 22 22 20 18 17 15 11 8 6 4 4 7 11 18 23 27 32 38 44 49 54 59 64 69 75 79 82 83 85 86 87 87 88 90
63 64 64 63 61 59 56 52 48 45 43 41 40 39 38 37 37 38 38 39 39 39 38 38 37 37 36 36 35 36 36 36 34 33 30 28 26 25 23 22 21 20 19 17 16 15 11 7 5 2 5 8 12 17 23 27 32 38 43 48 53 57 61 67 72 76 79 81 83 84 84 85 86 88
63 64 63 61 59 56 53 49 45 43 41 40 39 38 37 36 37 37 38 38 37 37 36 36 35 35 35 35 35 35 35 34 34 32 30 28 26 25 23 22 20 19 18 16 15 14 10 6 3 1 6 10 13 17 22 27 32 37 42 47 51 56 60 65 69 73 77 79 81 82 82 83 84 86
63 63 61 59 56 54 50 46 43 41 40 38 37 36 36 36 36 37 37 37 36 35 35 34 34 34 34 34 35 34 34 33 33 32 31 29 27 24 22 20 19 18 16 14 13 12 10 6 2 2 6 11 15 18 21 27 32 37 42 46 51 55 59 64 68 71 75 77 79 81 82 84 86 87
62 61 59 56 53 50 47 43 41 39 38 37 35 35 35 36 36 36 36 36 35 35 34 33 33 33 33 32 32 32 32 31 31 31 30 28 26 23 21 19 18 16 15 13 11 9 8 6 3 2 7 11 16 20 22 26 31 36 41 45 49 54 58 62 66 70 73 76 78 80 82 84 85 86
61 59 56 53 50 47 44 41 39 38 37 35 35 35 35 36 36 36 36 35 35 34 33 33 32 32 32 32 31 31 31 30 29 29 28 27 25 23 20 18 17 15 14 13 10 7 6 5 4 3 7 11 15 19 24 27 30 34 39 44 48 52 56 60 65 68 71 74 76 78 81 82 83 84
60 56 53 50 47 44 42 40 38 37 36 35 34 34 35 35 35 35 35 35 34 34 33 33 32 31 31 31 30 30 30 29 29 28 27 26 25 22 20 18 16 14 13 12 10 7 4 3 3 4 6 10 14 18 23 27 30 34 37 42 46 50 55 59 63 67 70 73 75 77 79 81 82 83
57 53 49 46 43 42 40 39 37 36 35 35 34 34 34 34 34 34 35 34 33 32 32 31 31 31 31 31 30 29 28 28 28 27 26 26 25 23 21 19 16 14 12 11 10 9 6 1 1 4 7 10 14 17 21 26 30 34 37 41 45 49 53 57 61 66 69 72 74 76 78 80 81 82
54 50 46 43 41 40 39 38 37 35 35 35 34 34 33 33 33 33 34 34 32 31 30 30 30 30 31 31 30 29 28 26 26 26 25 25 24 23 22 20 17 14 12 10 9 9 8 5 3 4 6 9 13 17 20 24 29 33 38 41 45 49 53 57 61 65 68 70 73 75 77 79 81 81
50 46 42 40 39 38 38 38 37 36 35 34 34 33 32 32 32 32 32 32 32 31 30 29 29 30 31 31 30 29 28 26 25 24 24 23 23 22 21 20 17 14 11 10 9 8 8 8 7 6 7 9 12 16 19 23 27 31 36 40 44 48 52 56 60 64 67 70 72 74 76 77 79 80
46 42 40 38 38 38 37 37 37 36 35 34 34 33 32 32 32 32 31 32 32 32 31 30 30 30 30 30 30 29 28 27 25 23 22 21 21 21 20 19 18 16 13 10 8 8 8 9 10 10 10 11 13 15 18 22 25 29 33 37 42 46 50 54 59 63 67 70 72 74 75 76 78 79
Wind_Direction
311 311 312 312 313 313 312 312 311 311 311 311 311 310 310 310 310 310 309 308 306 305 303 301 300 298 295 293 290 286 283 279 275 270 265 261 257 253 250 247 245 243 241 238 237 236 235 233 232 231 229 228 226 223 221 221 221 221 222 226 230 231 229 228 227 227 228 229 230 232 233 234 234 234
312 312 313 313 313 312 312 311 311 312 312 311 310 310 310 310 310 309 307 306 305 304 303 302 300 298 297 294 291 288 285 281 277 273 268 263 259 255 251 248 246 244 241 239 237 236 235 234 232 231 229 228 226 223 220 220 221 220 220 223 226 230 230 228 228 228 228 228 228 229 229 230 230 231
312 313 313 313 312 312 312 312 312 312 311 311 310 310 310 311 310 309 308 307 306 304 303 302 301 299 296 294 291 288 285 282 278 274 271 267 262 257 253 249 246 244 242 240 237 235 234 233 232 231 230 228 226 224 220 219 220 219 219 221 223 226 229 229 227 227 228 228 228 228 227 227 227 228
313 313 313 312 312 312 312 312 312 312 311 311 311 311 312 311 310 309 309 308 307 306 304 303 301 299 296 293 290 287 284 281 277 274 271 268 264 260 255 251 247 244 242 241 238 236 234 233 232 231 230 228 227 225 221 219 219 219 218 219 222 224 226 228 228 227 227 227 227 228 228 227 226 227
313 313 312 312 312 312 312 312 312 312 312 312 312 313 312 312 311 310 310 309 308 308 306 304 301 298 295 292 289 286 283 280 277 273 270 267 265 262 258 253 249 245 242 241 239 237 234 233 231 230 230 229 227 225 223 219 218 218 218 219 220 223 225 227 228 227 226 226 226 227 227 227 227 227
312 312 312 312 312 312 313 313 313 313 313 313 314 314 313 312 312 311 311 311 310 309 307 305 302 298 294 291 288 285 282 279 277 275 271 267 264 262 259 256 251 246 242 241 240 238 236 233 232 230 229 229 227 226 224 222 218 217 218 219 220 222 224 224 226 226 226 225 224 225 226 227 228 228
312 312 312 312 313 313 313 313 313 314 314 315 314 314 313 313 313 313 313 313 312 310 307 305 303 300 296 293 289 285 282 279 277 275 273 270 266 262 259 257 254 250 244 240 239 238 237 235 232 231 229 228 227 226 225 223 220 218 218 220 221 222 223 222 223 223 224 224 224 224 225 226 227 228
312 312 312 313 313 313 314 314 314 315 315 315 314 314 314 314 314 315 316 315 313 311 309 307 305 302 299 296 292 289 285 281 278 275 273 271 269 265 261 258 256 253 249 243 239 237 237 236 234 232 230 228 227 226 225 224 222 220 219 220 222 223 223 221 220 221 222 223 223 223 223 224 225 227
312 312 313 313 313 314 314 315 315 316 315 315 315 315 315 316 316 317 317 317 315 313 311 309 307 304 301 298 295 291 288 284 281 278 275 272 270 268 265 261 257 255 253 249 243 238 237 236 235 233 231 229 228 227 225 224 222 221 219 219 220 222 222 221 219 220 220 221 222 222 222 222 224 225
312 312 313 314 314 314 315 315 316 316 315 315 316 316 317 317 318 319 319 318 317 315 313 311 308 305 303 300 298 294 291 287 283 281 279 276 272 270 268 265 261 258 255 254 250 244 239 236 235 234 232 230 229 227 226 224 223 221 220 219 219 220 221 221 220 220 220 221 222 222 222 221 222 224
312 313 314 314 315 315 316 316 316 316 316 317 317 317 318 318 319 320 320 319 317 315 314 312 309 307 304 302 300 297 294 290 286 283 280 278 276 273 270 268 266 263 259 257 254 250 244 239 236 235 234 232 229 228 227 225 223 221 221 220 219 219 220 220 220 220 221 221 222 222 222 222 221 222
313 313 314 314 315 315 316 316 316 317 317 317 317 318 318 319 320 320 320 319 317 315 313 312 309 307 305 303 301 299 296 293 290 286 281 278 278 277 274 271 268 266 264 260 255 251 248 243 238 234 234 233 231 229 227 226 224 222 221 220 220 219 219 220 220 221 221 222 222 222 222 222 222 221
313 313 314 315 315 316 316 317 317 317 317 317 317 318 319 319 320 320 319 318 316 315 313 312 310 307 305 304 303 300 298 295 292 289 285 280 278 277 277 275 271 268 265 263 257 251 247 244 240 235 233 233 232 230 228 226 225 223 221 220 220 219 219 219 220 221 222 222 222 223 222 223 223 222
313 313 314 315 316 316 317 317 317 317 316 317 318 318 319 319 319 319 319 318 317 315 314 312 311 308 306 305 304 302 300 297 294 291 288 284 280 277 275 275 275 272 267 263 260 255 248 243 241 237 232 231 231 231 229 227 226 225 222 220 220 219 219 218 219 220 222 222 222 223 223 223 223 223
313 314 315 315 316 317 318 317 317 316 317 318 318 319 319 319 320 320 319 318 318 317 316 313 311 309 307 306 306 304 301 299 296 294 291 287 284 281 277 275 276 276 271 265 262 260 254 245 240 238 234 230 229 229 229 228 226 225 224 221 219 219 219 218 218 219 221 222 223 223 223 223 223 223
314 315 315 316 317 318 318 317 316 317 318 318 319 319 320 320 321 321 320 320 320 318 316 314 312 310 309 308 307 305 303 301 299 297 294 290 287 285 282 279 277 277 274 268 262 261 258 250 241 238 236 232 229 227 228 228 226 224 224 222 220 218 218 218 218 218 219 221 223 223 223 223 224 224
314 315 316 317 318 318 317 317 317 317 318 319 319 320 321 322 322 323 323 322 321 320 318 315 313 311 311 310 309 308 307 306 304 302 299 295 291 288 285 281 278 277 275 271 264 259 258 254 246 240 238 235 231 228 226 227 227 225 224 223 221 218 217 217 217 218 218 220 221 223 223 223 224 225
314 316 317 317 317 317 317 317 317 317 318 320 321 322 322 323 323 324 324 324 324 322 321 318 315 314 315 315 314 313 312 311 309 306 303 300 297 294 289 285 280 278 275 272 267 261 258 256 250 243 239 236 233 230 226 225 226 226 224 223 222 219 217 216 216 217 218 218 219 221 222 223 223 224
315 316 316 316 316 317 317 316 316 318 320 321 322 323 324 324 324 324 324 325 325 324 322 320 318 319 320 320 318 316 314 312 310 307 305 303 301 298 295 291 287 282 277 272 268 265 261 258 254 247 240 236 234 231 227 224 224 225 224 223 222 220 218 216 215 216 217 217 218 219 221 222 223 223
315 315 315 315 315 316 316 316 317 319 321 323 324 324 325 325 325 325 326 326 326 325 325 324 323 323 324 323 319 317 315 313 311 309 307 305 302 299 297 295 292 287 280 273 269 267 265 262 257 249 241 236 234 231 228 225 223 223 224 223 222 221 219 217 216 215 215 216 216 217 219 220 221 223
315 314 314 315 316 315 315 316 319 322 323 324 325 326 326 326 326 327 328 328 329 329 329 329 326 325 325 324 322 320 318 316 314 311 309 307 305 303 301 299 295 290 285 278 271 268 267 265 260 253 243 236 234 232 229 226 223 222 222 222 222 221 220 218 217 215 215 215 216 216 217 218 220 222
313 313 314 316 316 315 316 319 322 324 325 326 326 326 327 327 327 328 329 330 331 332 332 330 328 325 325 325 325 323 321 319 316 314 312 310 308 306 304 302 299 295 290 283 276 271 268 265 262 257 248 237 234 233 229 226 223 221 220 221 221 221 220 219 218 217 215 215 215 216 216 217 218 220
312 313 316 317 316 316 319 322 324 325 326 326 327 327 327 327 328 329 329 330 331 332 332 330 327 325 324 325 326 326 324 321 319 317 315 313 310 307 305 301 298 297 295 289 282 276 270 265 262 259 253 240 232 231 229 226 223 220 219 219 220 220 219 219 218 217 216 215 215 215 216 216 217 219
313 315 317 316 316 319 322 324 325 326 327 327 327 327 327 328 328 328 328 329 330 331 331 329 327 326 326 327 328 329 328 326 324 323 320 318 315 312 310 305 298 294 293 291 289 285 276 268 262 259 255 245 231 227 228 225 221 219 217 217 218 219 219 218 218 217 216 215 215 215 215 216 217 218
315 316 316 316 319 322 324 325 327 327 327 328 328 328 328 328 328 328 328 329 330 331 331 331 330 330 330 330 331 333 333 331 329 328 327 325 322 319 317 315 310 301 294 291 291 289 283 275 266 259 255 247 231 223 225 224 220 218 216 215 215 217 218 217 217 217 217 216 215 215 215 216 217 217
316 316 316 318 322 324 326 327 328 328 328 328 328 328 328 328 328 328 329 330 331 331 332 333 334 334 334 334 334 335 336 335 333 331 331 329 326 323 319 318 316 312 304 298 295 291 287 280 271 261 255 248 233 222 222 222 219 216 215 213 213 214 216 216 216 216 216 215 215 215 215 215 216 217
315 315 318 321 324 326 328 328 328 328 328 328 328 328 328 328 328 329 329 330 331 332 333 335 336 336 336 336 336 337 337 336 334 332 329 328 326 324 322 320 320 317 312 307 302 296 290 284 275 265 256 247 234 223 221 221 218 215 214 212 211 212 213 214 214 215 215 215 215 215 215 215 215 216
315 317 321 323 325 328 329 328 328 329 329 328 328 328 327 328 328 329 330 330 331 333 334 336 337 337 337 338 338 338 337 336 334 332 330 329 328 327 327 326 325 322 317 312 308 301 293 286 277 266 256 245 233 223 219 218 216 214 213 212 210 209 210 211 212 213 214 214 214 215 215 215 215 215
317 320 322 324 327 329 329 329 329 329 328 328 327 327 327 328 328 329 329 330 332 334 335 336 337 338 339 340 339 338 339 340 339 338 337 336 334 335 337 337 334 331 326 321 315 308 299 289 278 265 253 241 230 223 219 216 214 212 211 211 209 208 208 209 210 211 213 214 213 214 215 215 215 215
319 322 324 326 329 329 329 329 329 328 328 327 327 327 327 327 327 328 330 331 333 334 335 336 337 338 341 342 342 342 343 344 343 342 342 341 340 339 341 343 342 338 333 330 326 320 312 299 283 266 250 237 228 222 218 215 212 211 210 208 208 207 207 207 208 210 212 214 213 213 214 215 215 214
321 323 325 328 329 329 329 329 328 328 327 327 327 326 326 326 326 327 329 331 332 334 336 338 339 340 342 344 345 346 346 346 344 344 344 344 343 342 343 345 346 344 339 337 336 333 328 316 296 271 248 235 226 220 214 210 209 210 209 206 206 206 206 206 207 208 211 213 214 213 214 215 215 215
322 324 327 328 328 328 329 328 327 327 327 326 326 325 325 325 325 327 330 332 334 336 338 340 341 342 344 344 346 347 348 348 347 345 344 345 345 345 346 349 350 349 347 346 347 345 341 333 310 280 251 233 225 217 208 203 203 205 206 205 204 205 205 204 205 207 210 212 214 214 214 215 216 215
323 326 327 328 328 328 327 327 326 326 325 325 324 323 323 324 326 329 332 334 336 337 339 341 343 344 344 344 345 348 349 350 350 348 346 346 346 346 349 353 353 353 352 353 355 354 350 343 321 287 254 231 219 207 200 198 198 198 201 203 203 203 203 203 203 205 208 211 213 214 214 214 215 216
325 326 326 326 327 327 326 326 325 324 325 324 323 322 323 325 327 331 333 335 336 337 339 341 343 344 344 345 346 348 349 350 351 350 349 349 348 348 351 353 355 356 357 358 0 0 358 350 329 291 249 221 206 195 191 193 195 195 197 201 202 202 202 202 202 204 207 209 212 213 214 214 215 216
325 325 325 325 326 325 325 324 324 324 324 323 322 322 324 326 329 332 334 335 336 338 339 340 342 343 345 346 347 348 349 350 351 352 352 352 351 351 352 353 355 357 0 3 5 5 4 359 340 296 228 199 198 194 189 189 193 195 196 199 201 202 201 201 202 203 206 209 211 212 214 214 214 215
324 323 324 325 324 324 324 323 323 324 323 322 322 323 325 327 330 332 334 335 336 337 338 340 341 343 345 346 347 349 349 350 352 354 354 354 353 352 352 354 357 358 1 6 10 8 6 6 357 290 198 180 189 196 190 187 191 195 196 197 200 202 202 201 202 203 205 208 210 212 214 215 215 216
322 322 323 323 323 322 322 323 323 323 322 321 321 323 326 329 331 332 333 334 335 336 337 339 341 343 344 345 347 349 349 350 352 353 354 355 355 354 353 355 356 358 0 7 13 11 4 4 11 211 188 176 180 193 193 188 189 194 197 197 198 200 201 201 202 203 205 207 210 212 213 215 216 217
321 321 322 322 322 321 321 322 323 321 320 320 322 324 327 329 330 331 331 332 333 336 338 339 341 343 344 346 347 348 349 350 351 353 355 356 355 355 354 354 354 355 358 3 13 16 7 356 359 185 189 181 178 185 193 192 191 194 197 199 199 199 200 201 201 203 205 207 209 211 213 215 216 217
320 320 320 321 320 320 320 322 321 320 320 321 323 325 327 328 330 330 330 331 333 336 338 340 342 342 344 345 346 346 348 350 351 352 354 356 355 354 354 353 352 353 354 357 7 20 15 354 329 198 191 190 184 182 188 194 195 196 198 200 201 201 201 201 201 203 205 207 209 211 213 216 217 218
318 318 319 319 319 319 319 320 320 320 321 322 324 326 327 328 328 328 329 330 333 336 338 340 341 342 343 344 344 345 346 348 350 351 352 354 356 356 355 353 351 350 349 349 355 14 26 4 324 248 200 197 195 189 187 191 196 198 199 201 202 202 202 202 202 203 205 207 210 212 214 216 218 220
317 317 318 318 317 318 318 319 320 321 322 323 324 325 326 326 326 326 328 330 333 335 337 338 339 341 342 343 343 344 344 345 347 349 350 351 353 356 356 355 351 348 347 344 341 347 15 31 323 275 228 205 202 200 196 193 195 199 201 202 203 204 204 204 204 205 206 208 210 212 214 217 219 220
315 316 317 316 316 317 317 319 320 320 321 322 323 324 324 324 324 326 327 329 331 333 334 335 337 339 340 341 342 342 343 344 345 347 348 349 350 353 355 355 353 349 344 339 332 326 325 323 214 256 248 224 209 207 206 203 199 199 200 203 204 206 206 206 206 206 207 209 210 212 214 217 219 221
314 315 315 315 315 316 316 317 318 319 319 320 320 320 321 321 323 325 326 327 328 330 331 333 336 338 338 338 339 339 341 343 343 343 344 346 347 349 351 352 351 349 341 332 323 315 307 292 241 218 234 236 223 214 211 211 208 205 204 203 204 206 207 208 208 209 209 210 212 214 215 217 219 221
312 313 313 314 315 315 315 315 316 317 317 316 316 317 318 320 323 325 325 325 325 327 330 334 337 338 337 336 335 336 338 340 342 343 343 343 343 344 344 345 346 346 341 330 317 304 296 287 268 236 220 226 230 225 219 216 215 214 212 209 208 208 208 209 210 211 211 211 213 215 217 218 220 222
310 311 312 313 313 313 312 313 313 314 313 313 314 316 319 322 324 325 324 324 325 327 330 334 336 336 335 334 333 334 335 337 341 343 343 341 340 340 340 340 341 342 340 333 317 300 287 278 270 256 235 223 224 228 227 224 221 220 218 216 214 212 211 212 213 214 214 214 214 215 217 218 220 222